Agua de Enmedio, Mexico

7:42 PM MST on February 25, 2017 (GMT -0700)
Agua de Enmedio

Weather History for 76405 - November, 2013

Change the Weather History Date:

Friday, November 8, 2013

  Actual Average Record
Temperature  
Mean Temperature 76 °F -  
Max Temperature 87 °F 81 °F - ()
Min Temperature 64 °F 58 °F - ()
Cooling Degree Days 10    
Growing Degree Days 26 (Base 50)    
Moisture  
Dew Point 66 °F    
Average Humidity 68    
Maximum Humidity 88    
Minimum Humidity 45    
Precipitation  
Precipitation 0.00 in - - ()
Sea Level Pressure  
Sea Level Pressure 29.99 in    
Wind  
Wind Speed 6 mph ()    
Max Wind Speed 18 mph    
Max Gust Speed -    
Visibility 9.5 miles    
Events      
T = Trace of Precipitation, MM = Missing Value Source: Averaged Metar Reports

Daily Weather History Graph

Daily Weather History Graph

Search for Another Location

Airport or City:

Trip Planner

Search our weather history database for the weather conditions in past years. The results will help you decide how hot, cold, wet, or windy it might be!

Date:

Astronomy

Nov. 08, 2013 Rise Set
Actual Time 6:32 AM MST 5:37 PM MST
Civil Twilight 6:08 AM MST 6:01 PM MST
Nautical Twilight 5:41 AM MST 6:28 PM MST
Astronomical Twilight 5:14 AM MST 6:55 PM MST
Moon 11:30 AM MST (11/8) 10:59 PM MST (11/8)
Length of Visible Light 11h 52m
Length of Day
11h 05m
Waxing Crescent, 34% of the Moon is Illuminated
Nov 8
Waxing Crescent
Nov 9
First Quarter
Nov 17
Full
Nov 25
Last Quarter
Dec 2
New

Hourly Weather History & Observations

Time (MST) Temp. Heat Index Dew Point Humidity Pressure Visibility Wind Dir Wind Speed Gust Speed Precip Events Conditions
1:50 AM 73 °F - 68 °F 81% 29.99 in 2 mi North 2.2 mph - -   Scattered Clouds
4:50 AM 70 °F - 67 °F 86% 29.98 in 2 mi North 2.2 mph - -   Clear
5:44 AM 64.4 °F - 60.8 °F 88% 29.99 in 10.0 mi Calm Calm - N/A   Partly Cloudy
7:42 AM 66.2 °F - 62.6 °F 88% 30.13 in 10.0 mi South 6.9 mph - N/A   Partly Cloudy
7:50 AM 67 °F - 63 °F 83% 29.95 in 2 mi SW 2.2 mph - -   Scattered Clouds
8:43 AM 78.8 °F - 66.2 °F 65% 30.03 in 10.0 mi North 11.5 mph - N/A   Partly Cloudy
9:43 AM 78.8 °F - 64.4 °F 61% 30.03 in 10.0 mi North 15.0 mph - N/A   Partly Cloudy
10:49 AM 82.4 °F 84.6 °F 66.2 °F 58% 30.13 in 10.0 mi North 13.8 mph - N/A   Partly Cloudy
10:50 AM 86 °F - 70 °F 49% 30.01 in 19 mi North 8.9 mph - -   Scattered Clouds
11:44 AM 82.4 °F 84.6 °F 66.2 °F 58% 30.00 in 10.0 mi North 16.1 mph - N/A   Partly Cloudy
12:40 PM 82.4 °F 85.4 °F 68.0 °F 62% 29.97 in 10.0 mi North 18.4 mph - N/A   Partly Cloudy
1:48 PM 82.4 °F 85.4 °F 68.0 °F 62% 30.06 in 10.0 mi NNW 13.8 mph - N/A   Partly Cloudy
1:50 PM 88 °F - 70 °F 45% 29.94 in 19 mi NW 8.9 mph - -   Scattered Clouds
2:46 PM 82.4 °F 84.6 °F 66.2 °F 58% 29.93 in 10.0 mi North 13.8 mph - N/A   Partly Cloudy
3:51 PM 82.4 °F 84.6 °F 66.2 °F 58% 29.92 in 10.0 mi North 13.8 mph - N/A   Partly Cloudy
4:50 PM 81 °F - 68 °F 55% 29.91 in 19 mi NNE 6.7 mph - -  
4:50 PM 80.6 °F 82.3 °F 64.4 °F 58% 30.01 in 10.0 mi North 13.8 mph - N/A   Clear
5:41 PM 78.8 °F - 64.4 °F 61% 29.93 in 10.0 mi NNE 6.9 mph - N/A   Clear
6:44 PM 77.0 °F - 66.2 °F 69% 29.94 in 10.0 mi NE 6.9 mph - N/A   Clear
7:50 PM 77 °F - 69 °F 68% 29.94 in 2 mi NNE 4.5 mph - -  
7:50 PM 75.2 °F - 66.2 °F 73% 30.06 in 10.0 mi NNE 6.9 mph - N/A   Clear
8:46 PM 73.4 °F - 66.2 °F 78% 29.97 in 10.0 mi Calm Calm - N/A   Clear
9:53 PM 73.4 °F - 66.2 °F 78% 29.97 in 10.0 mi Calm Calm - N/A   Clear
10:50 PM 75 °F - 69 °F 78% 29.96 in 2 mi North 2.2 mph - -   Scattered Clouds
11:01 PM 69.8 °F - 64.4 °F 83% 30.09 in 10.0 mi Calm Calm - N/A   Clear